Content
SEND FEEDBACK

Daily
Averages
Monthly
Summary
United States of America

STATEN ISLAND, NEW YORK


Home > North America > United States > New York
Elevation: 152 feet     Latitude: 40 35N     Longitude: 074 09W

WEATHER
 
SELECT A DAY
Number of Records: 193,270;   Date Range: 1/1/95 - 11/25/14
 
SHARE

PRINT THIS DATA

[ ← Previous Day ]
WEATHER ALMANAC - JANUARY 10, 2013
[ Next Day → ]
[ °C ]   °F
Weather ElementAverageHighLow
Temperature43.6 °F50 °F (1:51 pm)39 °F (1:51 am)
Dewpoint24.1 °F30 °F (1:51 am)21 °F (3:51 pm)
Humidity47.3 %70 % (1:51 am)33 % (1:51 pm)
Barometer30.47 in30.55 in (11:51 pm)30.30 in (1:51 am)
Wind Speed9 mph17.3 mph (9:51 am)
Wind Gust26.5 mph (9:51 am)
Weather ElementAverage
Visibility10 mi
Wind DirectionW (268.7 °)

Weather ElementTotal
Precipitation---
Heating Degree Days20.5 (Base 65)
Averaged from 23 records on January 10, 2013
WEATHER CONDITIONS BREAKOUT
WIND DIRECTION BREAKOUT
WEATHER BY HOUR - JANUARY 10, 2013
[ °C ]   °F
Local TimeTemperatureDewpointHumidityBarometerVisibilityWind DirectionWind SpeedGust SpeedPrecipitationEventsConditions
1:51 AM39.0 °F30.0 °F70 %30.30 in10.0 miSSW (210°)9.2 mphClear
2:51 AM39.0 °F28.9 °F67 %30.33 in10.0 miSW (230°)6.9 mphClear
3:51 AM39.2 °F26.6 °F61 %30.35 in10.0 miWest (270°)5.8 mphClear
4:51 AM41.0 °F26.6 °F57 %30.37 in10.0 miNW (320°)6.9 mphClear
5:51 AM41.0 °F26.1 °F55 %30.39 in10.0 miWNW (300°)12.7 mph20.7 mphClear
6:51 AM39.2 °F24.8 °F56 %30.42 in10.0 miWest (280°)6.9 mph17.3 mphPartly Cloudy
7:51 AM41.0 °F25.0 °F53 %30.46 in10.0 miNNW (330°)6.9 mphMostly Cloudy
8:51 AM43.0 °F25.0 °F49 %30.48 in10.0 miNNW (330°)8.1 mphScattered Clouds
9:51 AM45.0 °F23.0 °F42 %30.50 in10.0 miNW (320°)17.3 mph26.5 mphMostly Cloudy
10:51 AM45.0 °F21.9 °F40 %30.50 in10.0 miNW (320°)11.5 mphMostly Cloudy
11:51 AM46.9 °F21.9 °F37 %30.48 in10.0 miNNW (330°)13.8 mph23.0 mphMostly Cloudy
12:51 PM48.9 °F21.9 °F35 %30.46 in10.0 miNW (320°)15.0 mph20.7 mphMostly Cloudy
1:51 PM50.0 °F21.9 °F33 %30.46 in10.0 miNW (310°)12.7 mph18.4 mphMostly Cloudy
2:51 PM50.0 °F21.9 °F33 %30.48 in10.0 miWNW (300°)11.5 mph19.6 mphMostly Cloudy
3:51 PM48.9 °F21.0 °F33 %30.49 in10.0 miNNW (330°)10.4 mphMostly Cloudy
4:51 PM46.9 °F21.9 °F37 %30.50 in10.0 miNW (310°)8.1 mphMostly Cloudy
5:51 PM46.0 °F21.9 °F39 %30.52 in10.0 miNW (320°)8.1 mphMostly Cloudy
6:51 PM45.0 °F23.0 °F42 %30.53 in10.0 miNNW (330°)6.9 mphScattered Clouds
7:51 PM44.1 °F23.0 °F43 %30.53 in10.0 miNNW (340°)4.6 mphMostly Cloudy
8:51 PM44.1 °F23.0 °F43 %30.54 in10.0 miNNW (340°)6.9 mphMostly Cloudy
9:51 PM41.0 °F25.0 °F53 %30.52 in10.0 miNorth (10°)8.1 mphMostly Cloudy
10:51 PM39.0 °F25.0 °F57 %30.54 in10.0 miNNE (30°)8.1 mphMostly Cloudy
11:51 PM39.9 °F24.1 °F53 %30.55 in10.0 miCalmMostly Cloudy
Hourly data recorded from KEWR, located miles away from Staten Island, New York







STORIES FROM OUR PARTNERS